Time,TemperatureF,DewpointF,PressureIn,WindDirection,WindDirectionDegrees,WindSpeedMPH,WindSpeedGustMPH,Humidity,HourlyPrecipIn,Conditions,Clouds,dailyrainin,SoftwareType,DateUTC
2013-05-21 00:10:00,70.9,62.0,29.75,WNW,287,1.0,26.0,74,0.00,,,0.00,weatherlink.com 1.10,2013-05-21 05:10:00,
2013-05-21 00:25:00,67.1,62.0,29.75,NW,325,4.0,11.0,83,0.00,,,0.00,weatherlink.com 1.10,2013-05-21 05:25:00,
2013-05-21 00:40:00,65.6,62.0,29.74,West,279,4.0,10.0,87,0.00,,,0.00,weatherlink.com 1.10,2013-05-21 05:40:00,
2013-05-21 00:55:00,65.1,62.0,29.76,West,269,8.0,9.0,89,0.02,,,0.02,weatherlink.com 1.10,2013-05-21 05:55:00,
2013-05-21 01:10:00,64.5,62.0,29.74,West,265,2.0,6.0,90,0.28,,,0.28,weatherlink.com 1.10,2013-05-21 06:10:00,
2013-05-21 01:25:00,64.3,62.0,29.76,SW,219,0.0,4.0,91,0.39,,,0.39,weatherlink.com 1.10,2013-05-21 06:25:00,
2013-05-21 01:40:00,64.1,62.0,29.74,West,268,0.0,4.0,92,0.42,,,0.42,weatherlink.com 1.10,2013-05-21 06:40:00,
2013-05-21 01:55:00,64.0,62.0,29.74,West,272,0.0,4.0,92,0.43,,,0.46,weatherlink.com 1.10,2013-05-21 06:55:00,
2013-05-21 02:10:00,64.1,62.0,29.73,WNW,296,0.0,7.0,92,0.19,,,0.47,weatherlink.com 1.10,2013-05-21 07:10:00,
2013-05-21 02:25:00,64.4,62.0,29.73,South,189,5.0,7.0,93,0.09,,,0.48,weatherlink.com 1.10,2013-05-21 07:25:00,
2013-05-21 02:40:00,64.7,62.0,29.70,South,169,6.0,10.0,92,0.06,,,0.48,weatherlink.com 1.10,2013-05-21 07:40:00,
2013-05-21 02:55:00,64.9,63.0,29.69,SSE,159,8.0,11.0,92,0.03,,,0.49,weatherlink.com 1.10,2013-05-21 07:55:00,
2013-05-21 03:10:00,64.7,62.0,29.68,SE,142,12.0,18.0,92,0.02,,,0.49,weatherlink.com 1.10,2013-05-21 08:10:00,
2013-05-21 03:25:00,64.7,62.0,29.70,SSW,200,6.0,16.0,92,0.01,,,0.49,weatherlink.com 1.10,2013-05-21 08:25:00,
2013-05-21 03:40:00,64.8,62.0,29.70,South,186,7.0,14.0,91,0.01,,,0.49,weatherlink.com 1.10,2013-05-21 08:40:00,
2013-05-21 03:55:00,64.8,62.0,29.70,SSW,206,7.0,11.0,91,0.00,,,0.49,weatherlink.com 1.10,2013-05-21 08:55:00,
2013-05-21 04:10:00,64.5,61.0,29.69,SSW,205,6.0,11.0,89,0.00,,,0.49,weatherlink.com 1.10,2013-05-21 09:10:00,
2013-05-21 04:25:00,64.2,61.0,29.68,SSW,196,2.0,7.0,90,0.00,,,0.49,weatherlink.com 1.10,2013-05-21 09:25:00,
2013-05-21 04:40:00,63.9,61.0,29.69,SSW,200,4.0,6.0,90,0.00,,,0.49,weatherlink.com 1.10,2013-05-21 09:40:00,
2013-05-21 04:55:00,63.8,61.0,29.70,SSW,200,7.0,7.0,90,0.00,,,0.49,weatherlink.com 1.10,2013-05-21 09:55:00,
2013-05-21 05:11:00,63.6,61.0,29.71,SSW,198,6.0,10.0,91,0.00,,,0.49,weatherlink.com 1.10,2013-05-21 10:11:00,
2013-05-21 05:26:00,64.0,60.0,29.71,SSW,204,9.0,14.0,88,0.00,,,0.49,weatherlink.com 1.10,2013-05-21 10:26:00,
2013-05-21 05:41:00,64.6,60.0,29.72,SW,215,8.0,14.0,86,0.00,,,0.49,weatherlink.com 1.10,2013-05-21 10:41:00,
2013-05-21 05:56:00,65.0,60.0,29.72,SW,214,6.0,14.0,85,0.00,,,0.49,weatherlink.com 1.10,2013-05-21 10:56:00,
2013-05-21 06:11:00,65.3,61.0,29.72,SSW,199,11.0,19.0,85,0.00,,,0.49,weatherlink.com 1.10,2013-05-21 11:11:00,
2013-05-21 06:26:00,65.6,61.0,29.71,SSW,209,11.0,13.0,85,0.00,,,0.49,weatherlink.com 1.10,2013-05-21 11:26:00,
2013-05-21 06:41:00,65.8,61.0,29.70,SSW,200,7.0,13.0,85,0.00,,,0.49,weatherlink.com 1.10,2013-05-21 11:41:00,
2013-05-21 06:56:00,66.1,62.0,29.70,SSW,206,7.0,11.0,85,0.00,,,0.49,weatherlink.com 1.10,2013-05-21 11:56:00,
2013-05-21 07:11:00,67.0,62.0,29.71,SSW,192,10.0,12.0,85,0.00,,,0.49,weatherlink.com 1.10,2013-05-21 12:11:00,
2013-05-21 07:26:00,67.9,63.0,29.71,SSW,198,9.0,12.0,85,0.00,,,0.49,weatherlink.com 1.10,2013-05-21 12:26:00,
2013-05-21 07:41:00,67.8,62.0,29.71,SSW,200,10.0,19.0,82,0.00,,,0.49,weatherlink.com 1.10,2013-05-21 12:41:00,
2013-05-21 07:56:00,68.1,63.0,29.72,South,190,15.0,16.0,84,0.00,,,0.49,weatherlink.com 1.10,2013-05-21 12:56:00,
2013-05-21 08:11:00,67.5,63.0,29.73,SSW,202,15.0,18.0,85,0.00,,,0.49,weatherlink.com 1.10,2013-05-21 13:11:00,
2013-05-21 08:26:00,67.5,63.0,29.73,SSW,210,6.0,21.0,85,0.00,,,0.49,weatherlink.com 1.10,2013-05-21 13:26:00,
2013-05-21 08:41:00,67.7,63.0,29.74,SW,217,7.0,16.0,85,0.00,,,0.49,weatherlink.com 1.10,2013-05-21 13:41:00,
2013-05-21 08:56:00,67.9,64.0,29.74,SW,217,11.0,20.0,86,0.00,,,0.49,weatherlink.com 1.10,2013-05-21 13:56:00,
2013-05-21 09:11:00,68.5,64.0,29.74,SW,214,17.0,20.0,85,0.00,,,0.49,weatherlink.com 1.10,2013-05-21 14:11:00,
2013-05-21 09:26:00,69.6,65.0,29.73,SW,226,19.0,21.0,86,0.00,,,0.49,weatherlink.com 1.10,2013-05-21 14:26:00,
2013-05-21 09:41:00,70.1,65.0,29.74,SW,222,9.0,20.0,85,0.00,,,0.49,weatherlink.com 1.10,2013-05-21 14:41:00,
2013-05-21 09:56:00,70.8,65.0,29.73,SW,226,8.0,19.0,81,0.00,,,0.49,weatherlink.com 1.10,2013-05-21 14:56:00,
2013-05-21 10:11:00,71.2,65.0,29.73,SW,225,6.0,16.0,81,0.00,,,0.49,weatherlink.com 1.10,2013-05-21 15:11:00,
2013-05-21 10:26:00,72.0,65.0,29.73,SW,226,11.0,25.0,79,0.00,,,0.49,weatherlink.com 1.10,2013-05-21 15:26:00,
2013-05-21 10:41:00,71.5,65.0,29.73,SW,225,10.0,18.0,80,0.00,,,0.49,weatherlink.com 1.10,2013-05-21 15:41:00,
2013-05-21 10:56:00,72.5,66.0,29.72,SW,221,12.0,21.0,79,0.00,,,0.49,weatherlink.com 1.10,2013-05-21 15:56:00,
2013-05-21 11:11:00,73.8,67.0,29.72,SW,232,12.0,17.0,79,0.00,,,0.49,weatherlink.com 1.10,2013-05-21 16:11:00,
2013-05-21 11:26:00,74.8,68.0,29.72,SW,228,6.0,22.0,78,0.00,,,0.49,weatherlink.com 1.10,2013-05-21 16:26:00,
2013-05-21 11:41:00,74.8,68.0,29.72,SW,234,7.0,17.0,78,0.00,,,0.49,weatherlink.com 1.10,2013-05-21 16:41:00,
2013-05-21 11:56:00,75.5,67.0,29.71,WSW,239,9.0,16.0,75,0.00,,,0.49,weatherlink.com 1.10,2013-05-21 16:56:00,
2013-05-21 12:11:00,76.2,69.0,29.71,SW,228,7.0,19.0,77,0.00,,,0.49,weatherlink.com 1.10,2013-05-21 17:11:00,
2013-05-21 12:41:00,75.9,68.0,29.71,SW,225,9.0,14.0,77,0.00,,,0.49,weatherlink.com 1.10,2013-05-21 17:41:00,
2013-05-21 12:56:00,75.9,67.0,29.71,WSW,242,11.0,20.0,75,0.00,,,0.49,weatherlink.com 1.10,2013-05-21 17:56:00,
2013-05-21 13:11:00,75.3,67.0,29.71,SW,226,8.0,14.0,76,0.00,,,0.49,weatherlink.com 1.10,2013-05-21 18:11:00,
2013-05-21 13:26:00,76.7,68.0,29.71,WSW,242,8.0,14.0,74,0.00,,,0.49,weatherlink.com 1.10,2013-05-21 18:26:00,
2013-05-21 13:41:00,76.9,68.0,29.72,SW,236,6.0,13.0,75,0.00,,,0.49,weatherlink.com 1.10,2013-05-21 18:41:00,
2013-05-21 13:56:00,78.1,70.0,29.71,WSW,242,13.0,15.0,75,0.00,,,0.49,weatherlink.com 1.10,2013-05-21 18:56:00,
2013-05-21 14:11:00,78.6,69.0,29.70,WSW,245,7.0,16.0,72,0.00,,,0.49,weatherlink.com 1.10,2013-05-21 19:11:00,
2013-05-21 14:26:00,80.0,69.0,29.70,SW,223,7.0,14.0,70,0.00,,,0.49,weatherlink.com 1.10,2013-05-21 19:26:00,
2013-05-21 14:42:00,79.9,69.0,29.70,SW,225,9.0,15.0,69,0.00,,,0.49,weatherlink.com 1.10,2013-05-21 19:42:00,
2013-05-21 14:57:00,80.2,70.0,29.70,WSW,237,6.0,14.0,71,0.00,,,0.49,weatherlink.com 1.10,2013-05-21 19:57:00,
2013-05-21 15:12:00,80.9,68.0,29.70,WNW,286,11.0,19.0,66,0.00,,,0.49,weatherlink.com 1.10,2013-05-21 20:12:00,
2013-05-21 15:27:00,80.3,69.0,29.70,SW,225,6.0,15.0,68,0.00,,,0.49,weatherlink.com 1.10,2013-05-21 20:27:00,
2013-05-21 15:42:00,80.3,69.0,29.69,WSW,240,9.0,14.0,69,0.00,,,0.49,weatherlink.com 1.10,2013-05-21 20:42:00,
2013-05-21 16:12:00,81.0,67.0,29.68,WSW,240,4.0,14.0,63,0.00,,,0.49,weatherlink.com 1.10,2013-05-21 21:12:00,
2013-05-21 16:27:00,81.9,68.0,29.68,SW,234,5.0,15.0,63,0.00,,,0.49,weatherlink.com 1.10,2013-05-21 21:27:00,
2013-05-21 16:42:00,81.4,68.0,29.68,SW,234,4.0,16.0,63,0.00,,,0.49,weatherlink.com 1.10,2013-05-21 21:42:00,
2013-05-21 16:57:00,80.9,68.0,29.68,SW,227,12.0,17.0,65,0.00,,,0.49,weatherlink.com 1.10,2013-05-21 21:57:00,
2013-05-21 17:12:00,81.9,69.0,29.67,SW,235,2.0,17.0,64,0.00,,,0.49,weatherlink.com 1.10,2013-05-21 22:12:00,
2013-05-21 17:27:00,81.1,66.0,29.67,WSW,249,9.0,17.0,60,0.00,,,0.49,weatherlink.com 1.10,2013-05-21 22:27:00,
2013-05-21 17:42:00,80.8,67.0,29.67,SW,221,4.0,11.0,63,0.00,,,0.49,weatherlink.com 1.10,2013-05-21 22:42:00,
2013-05-21 17:57:00,81.0,67.0,29.66,WSW,252,9.0,11.0,63,0.00,,,0.49,weatherlink.com 1.10,2013-05-21 22:57:00,
2013-05-21 18:12:00,80.7,66.0,29.66,SW,221,9.0,14.0,62,0.00,,,0.49,weatherlink.com 1.10,2013-05-21 23:12:00,
2013-05-21 18:27:00,79.9,66.0,29.66,WSW,239,4.0,13.0,63,0.00,,,0.49,weatherlink.com 1.10,2013-05-21 23:27:00,
2013-05-21 18:42:00,79.5,66.0,29.65,SW,232,3.0,11.0,63,0.00,,,0.49,weatherlink.com 1.10,2013-05-21 23:42:00,
2013-05-21 19:12:00,78.0,66.0,29.66,SW,222,2.0,9.0,67,0.00,,,0.49,weatherlink.com 1.10,2013-05-22 00:12:00,
2013-05-21 19:27:00,77.3,65.0,29.66,SW,223,1.0,4.0,67,0.00,,,0.49,weatherlink.com 1.10,2013-05-22 00:27:00,
2013-05-21 19:42:00,76.4,66.0,29.66,SW,223,1.0,2.0,70,0.00,,,0.49,weatherlink.com 1.10,2013-05-22 00:42:00,
2013-05-21 19:57:00,75.0,66.0,29.66,SW,223,2.0,2.0,74,0.00,,,0.49,weatherlink.com 1.10,2013-05-22 00:57:00,
2013-05-21 20:12:00,74.1,66.0,29.67,SW,223,0.0,1.0,76,0.00,,,0.49,weatherlink.com 1.10,2013-05-22 01:12:00,
2013-05-21 20:27:00,73.1,66.0,29.67,SW,223,0.0,1.0,78,0.00,,,0.49,weatherlink.com 1.10,2013-05-22 01:27:00,
2013-05-21 20:42:00,72.4,66.0,29.68,SW,223,1.0,2.0,80,0.00,,,0.49,weatherlink.com 1.10,2013-05-22 01:42:00,
2013-05-21 20:57:00,72.7,66.0,29.69,SW,223,0.0,2.0,80,0.00,,,0.49,weatherlink.com 1.10,2013-05-22 01:57:00,
2013-05-21 21:12:00,72.6,67.0,29.69,SW,223,0.0,1.0,81,0.00,,,0.49,weatherlink.com 1.10,2013-05-22 02:12:00,
2013-05-21 21:27:00,72.4,66.0,29.69,SW,223,0.0,2.0,80,0.00,,,0.49,weatherlink.com 1.10,2013-05-22 02:27:00,
2013-05-21 21:42:00,72.1,65.0,29.69,SW,219,2.0,3.0,79,0.00,,,0.49,weatherlink.com 1.10,2013-05-22 02:42:00,
2013-05-21 21:57:00,71.7,65.0,29.70,SW,215,1.0,3.0,79,0.00,,,0.49,weatherlink.com 1.10,2013-05-22 02:57:00,
2013-05-21 22:12:00,71.6,64.0,29.70,SSW,205,7.0,9.0,78,0.00,,,0.49,weatherlink.com 1.10,2013-05-22 03:12:00,
2013-05-21 22:27:00,71.7,65.0,29.69,SSW,201,6.0,10.0,78,0.00,,,0.49,weatherlink.com 1.10,2013-05-22 03:27:00,
2013-05-21 22:42:00,71.7,65.0,29.69,South,186,5.0,13.0,78,0.00,,,0.49,weatherlink.com 1.10,2013-05-22 03:42:00,
2013-05-21 22:57:00,71.5,65.0,29.68,SSW,205,8.0,12.0,79,0.00,,,0.49,weatherlink.com 1.10,2013-05-22 03:57:00,
2013-05-21 23:12:00,71.6,65.0,29.68,SSW,213,5.0,13.0,80,0.00,,,0.49,weatherlink.com 1.10,2013-05-22 04:12:00,
2013-05-21 23:27:00,71.7,66.0,29.68,SW,215,8.0,12.0,81,0.00,,,0.49,weatherlink.com 1.10,2013-05-22 04:27:00,
2013-05-21 23:42:00,71.7,65.0,29.67,SSW,197,6.0,12.0,80,0.00,,,0.49,weatherlink.com 1.10,2013-05-22 04:42:00,
2013-05-21 23:57:00,71.5,65.0,29.68,SW,215,10.0,12.0,81,0.00,,,0.49,weatherlink.com 1.10,2013-05-22 04:57:00,